UAL2677 KDCA-KEWR

Flight info

Callsign UAL2677
Flight time 0h 43m
Altitude 29000
Route SOOKI6 SWANN PHLBO4
Aircraft A320/M-SDE3FGHIRWY/LB1

Departure

Time 2026-04-22 22:18
Airport Ronald Reagan Washington National Airport (KDCA)

Arrival

Time 2026-04-22 23:02
Airport Newark Liberty International Airport (KEWR)
Time Latitude Longitude Altitude Speed Heading
2026-04-22 22:04 38.85391 -77.04075 24 ft 0 kts 302°
2026-04-22 22:10 38.85384 -77.04060 24 ft 3 kts 302°
2026-04-22 22:10 38.85373 -77.04039 25 ft 3 kts 302°
2026-04-22 22:11 38.85362 -77.04018 27 ft 3 kts 315°
2026-04-22 22:11 38.85346 -77.04002 28 ft 3 kts 335°
2026-04-22 22:11 38.85328 -77.03994 27 ft 3 kts 353°
2026-04-22 22:11 38.85308 -77.03992 27 ft 2 kts 355°
2026-04-22 22:12 38.85291 -77.03991 26 ft 2 kts 355°
2026-04-22 22:12 38.85288 -77.03990 26 ft 2 kts 355°
2026-04-22 22:14 38.85309 -77.03993 24 ft 5 kts 355°
2026-04-22 22:14 38.85355 -77.03998 24 ft 8 kts 355°
2026-04-22 22:15 38.85426 -77.04005 24 ft 12 kts 355°
2026-04-22 22:15 38.85514 -77.04018 24 ft 12 kts 348°
2026-04-22 22:15 38.85554 -77.04028 24 ft 2 kts 351°
2026-04-22 22:15 38.85565 -77.04030 24 ft 1 kts 350°
2026-04-22 22:16 38.85580 -77.04033 24 ft 5 kts 352°
2026-04-22 22:16 38.85635 -77.04042 24 ft 10 kts 352°
2026-04-22 22:16 38.85686 -77.04042 26 ft 0 kts
2026-04-22 22:16 38.85688 -77.04037 27 ft 2 kts 45°
2026-04-22 22:17 38.85717 -77.03990 30 ft 11 kts 37°
2026-04-22 22:17 38.85821 -77.03983 27 ft 18 kts 355°
2026-04-22 22:17 38.85952 -77.03974 24 ft 18 kts
2026-04-22 22:17 38.86076 -77.03925 25 ft 15 kts 42°
2026-04-22 22:18 38.86018 -77.03862 24 ft 24 kts 179°
2026-04-22 22:18 38.85594 -77.03821 25 ft 95 kts 175°
2026-04-22 22:18 38.84749 -77.03738 94 ft 138 kts 176°
2026-04-22 22:18 38.83791 -77.03655 713 ft 138 kts 176°
2026-04-22 22:19 38.82806 -77.03490 1163 ft 147 kts 176°
2026-04-22 22:19 38.81792 -77.03269 1751 ft 149 kts 175°
2026-04-22 22:19 38.80709 -77.03035 2003 ft 172 kts 174°
2026-04-22 22:19 38.79438 -77.02765 2293 ft 197 kts 173°
2026-04-22 22:20 38.77997 -77.02456 2660 ft 222 kts 173°
2026-04-22 22:20 38.76433 -77.01951 3220 ft 243 kts 154°
2026-04-22 22:20 38.75213 -77.00372 3891 ft 265 kts 117°
2026-04-22 22:20 38.74730 -76.98057 4519 ft 280 kts 94°
2026-04-22 22:21 38.74740 -76.95539 5413 ft 285 kts 76°
2026-04-22 22:21 38.75475 -76.93188 6327 ft 286 kts 55°
2026-04-22 22:21 38.76673 -76.91149 7250 ft 285 kts 42°
2026-04-22 22:21 38.78169 -76.89491 8163 ft 285 kts 29°
2026-04-22 22:22 38.79853 -76.88140 9101 ft 287 kts 27°
2026-04-22 22:22 38.81562 -76.86785 9998 ft 290 kts 27°
2026-04-22 22:22 38.83330 -76.85399 10490 ft 309 kts 26°
2026-04-22 22:22 38.85236 -76.83920 10761 ft 332 kts 27°
2026-04-22 22:23 38.87134 -76.82166 11281 ft 347 kts 37°
2026-04-22 22:23 38.88945 -76.80062 12018 ft 352 kts 38°
2026-04-22 22:23 38.90768 -76.77944 12791 ft 355 kts 38°
2026-04-22 22:23 38.92612 -76.75803 13566 ft 358 kts 38°
2026-04-22 22:24 38.94477 -76.73642 14294 ft 362 kts 37°
2026-04-22 22:24 38.96356 -76.71466 14965 ft 365 kts 37°
2026-04-22 22:24 38.98225 -76.69297 15612 ft 368 kts 37°
2026-04-22 22:24 39.00133 -76.67081 16262 ft 371 kts 37°
2026-04-22 22:25 39.02046 -76.64827 16928 ft 375 kts 39°
2026-04-22 22:25 39.03944 -76.62473 17620 ft 378 kts 40°
2026-04-22 22:25 39.05818 -76.60068 18304 ft 382 kts 40°
2026-04-22 22:25 39.07700 -76.57621 18871 ft 386 kts 40°
2026-04-22 22:26 39.09531 -76.55118 19464 ft 393 kts 46°
2026-04-22 22:26 39.11047 -76.52151 20057 ft 403 kts 58°
2026-04-22 22:26 39.12103 -76.48760 20666 ft 413 kts 70°
2026-04-22 22:26 39.12673 -76.45095 20939 ft 420 kts 77°
2026-04-22 22:27 39.13107 -76.41326 21032 ft 433 kts 78°
2026-04-22 22:27 39.13547 -76.37427 21034 ft 443 kts 78°
2026-04-22 22:27 39.13985 -76.33478 21033 ft 445 kts 78°
2026-04-22 22:27 39.14455 -76.29533 21032 ft 444 kts 74°
2026-04-22 22:28 39.15333 -76.25751 21032 ft 439 kts 64°
2026-04-22 22:28 39.16692 -76.22267 21033 ft 433 kts 53°
2026-04-22 22:28 39.18469 -76.19179 21032 ft 427 kts 43°
2026-04-22 22:28 39.20581 -76.16529 21039 ft 422 kts 37°
2026-04-22 22:29 39.22738 -76.14017 21052 ft 422 kts 37°
2026-04-22 22:29 39.24914 -76.11467 21030 ft 422 kts 37°
2026-04-22 22:29 39.27087 -76.08913 21028 ft 422 kts 37°
2026-04-22 22:29 39.29263 -76.06359 21026 ft 422 kts 37°
2026-04-22 22:30 39.31442 -76.03804 21022 ft 422 kts 37°
2026-04-22 22:30 39.33621 -76.01243 21021 ft 422 kts 37°
2026-04-22 22:30 39.35795 -75.98685 21023 ft 422 kts 37°
2026-04-22 22:30 39.37942 -75.96157 21026 ft 422 kts 37°
2026-04-22 22:31 39.40113 -75.93597 21030 ft 422 kts 37°
2026-04-22 22:31 39.42282 -75.91033 21026 ft 422 kts 37°
2026-04-22 22:31 39.44449 -75.88467 21028 ft 422 kts 37°
2026-04-22 22:31 39.46615 -75.85903 21027 ft 422 kts 37°
2026-04-22 22:32 39.48790 -75.83333 21026 ft 422 kts 37°
2026-04-22 22:32 39.50954 -75.80773 21025 ft 422 kts 37°
2026-04-22 22:32 39.53125 -75.78199 21035 ft 422 kts 37°
2026-04-22 22:32 39.55262 -75.75656 21030 ft 422 kts 37°
2026-04-22 22:33 39.57424 -75.73081 21026 ft 422 kts 38°
2026-04-22 22:33 39.59587 -75.70504 21031 ft 422 kts 37°
2026-04-22 22:33 39.61751 -75.67932 21028 ft 422 kts 37°
2026-04-22 22:33 39.63916 -75.65356 21025 ft 422 kts 37°
2026-04-22 22:34 39.66067 -75.62791 21022 ft 422 kts 37°
2026-04-22 22:34 39.68228 -75.60215 21022 ft 422 kts 37°
2026-04-22 22:34 39.70387 -75.57635 21021 ft 422 kts 38°
2026-04-22 22:34 39.72545 -75.55043 21020 ft 422 kts 38°
2026-04-22 22:35 39.74696 -75.52445 21011 ft 421 kts 38°
2026-04-22 22:35 39.76802 -75.49894 20762 ft 407 kts 38°
2026-04-22 22:35 39.78845 -75.47412 20510 ft 396 kts 38°
2026-04-22 22:35 39.80834 -75.44999 20268 ft 386 kts 38°
2026-04-22 22:36 39.82772 -75.42655 20060 ft 374 kts 37°
2026-04-22 22:36 39.84633 -75.40400 19934 ft 355 kts 37°
2026-04-22 22:36 39.86403 -75.38252 19468 ft 342 kts 37°
2026-04-22 22:36 39.88112 -75.36185 18844 ft 335 kts 37°
2026-04-22 22:37 39.89816 -75.34128 18180 ft 331 kts 37°
2026-04-22 22:37 39.91480 -75.32113 17594 ft 322 kts 37°
2026-04-22 22:37 39.93103 -75.30145 17078 ft 317 kts 37°
2026-04-22 22:37 39.94724 -75.28181 16592 ft 319 kts 37°
2026-04-22 22:38 39.96358 -75.26209 16132 ft 320 kts 37°
2026-04-22 22:38 39.97979 -75.24248 15644 ft 322 kts 37°
2026-04-22 22:38 39.99599 -75.22276 15156 ft 315 kts 38°
2026-04-22 22:38 40.01181 -75.20345 14661 ft 308 kts 38°
2026-04-22 22:39 40.02751 -75.18431 14172 ft 311 kts 38°
2026-04-22 22:39 40.04346 -75.16491 13660 ft 315 kts 38°
2026-04-22 22:39 40.05930 -75.14559 13151 ft 309 kts 38°
2026-04-22 22:39 40.07484 -75.12654 12635 ft 303 kts 38°
2026-04-22 22:40 40.09008 -75.10780 12157 ft 297 kts 38°
2026-04-22 22:40 40.10507 -75.08938 11683 ft 295 kts 38°
2026-04-22 22:40 40.11995 -75.07121 11211 ft 299 kts 38°
2026-04-22 22:40 40.13523 -75.05259 10813 ft 300 kts 38°
2026-04-22 22:41 40.15042 -75.03404 10567 ft 297 kts 38°
2026-04-22 22:41 40.16549 -75.01564 10298 ft 294 kts 38°
2026-04-22 22:41 40.18038 -74.99744 10027 ft 292 kts 38°
2026-04-22 22:41 40.19520 -74.97926 9724 ft 291 kts 38°
2026-04-22 22:42 40.20971 -74.96142 9478 ft 289 kts 38°
2026-04-22 22:42 40.22440 -74.94335 9205 ft 288 kts 39°
2026-04-22 22:42 40.23897 -74.92540 8937 ft 287 kts 38°
2026-04-22 22:42 40.25353 -74.90748 8673 ft 286 kts 39°
2026-04-22 22:43 40.26757 -74.88904 8410 ft 286 kts 41°
2026-04-22 22:43 40.28121 -74.86999 8146 ft 286 kts 43°
2026-04-22 22:43 40.29454 -74.85091 8006 ft 284 kts 43°
2026-04-22 22:43 40.30792 -74.83173 8011 ft 286 kts 43°
2026-04-22 22:44 40.32141 -74.81248 8022 ft 286 kts 43°
2026-04-22 22:44 40.33477 -74.79355 7844 ft 286 kts 43°
2026-04-22 22:44 40.34829 -74.77449 7575 ft 283 kts 42°
2026-04-22 22:44 40.36170 -74.75561 7471 ft 283 kts 42°
2026-04-22 22:45 40.37509 -74.73674 7376 ft 283 kts 42°
2026-04-22 22:45 40.38851 -74.71778 7281 ft 282 kts 42°
2026-04-22 22:45 40.40185 -74.69891 7186 ft 281 kts 42°
2026-04-22 22:45 40.41578 -74.68104 7094 ft 277 kts 32°
2026-04-22 22:46 40.43227 -74.66857 7005 ft 271 kts 17°
2026-04-22 22:46 40.45023 -74.66215 6910 ft 266 kts
2026-04-22 22:46 40.46849 -74.65743 6822 ft 266 kts
2026-04-22 22:46 40.48642 -74.65267 6738 ft 266 kts
2026-04-22 22:47 40.50457 -74.64778 6651 ft 265 kts
2026-04-22 22:47 40.52268 -74.64290 6563 ft 265 kts
2026-04-22 22:47 40.54079 -74.63804 6485 ft 265 kts
2026-04-22 22:47 40.55886 -74.63319 6379 ft 265 kts
2026-04-22 22:48 40.57690 -74.62834 6250 ft 264 kts
2026-04-22 22:48 40.59490 -74.62350 6121 ft 264 kts
2026-04-22 22:48 40.61293 -74.61869 5993 ft 264 kts
2026-04-22 22:48 40.63092 -74.61390 5865 ft 263 kts
2026-04-22 22:49 40.64890 -74.60909 5745 ft 263 kts
2026-04-22 22:49 40.66646 -74.60434 5742 ft 254 kts
2026-04-22 22:49 40.68376 -74.59963 5741 ft 253 kts
2026-04-22 22:49 40.70102 -74.59496 5740 ft 253 kts
2026-04-22 22:50 40.71808 -74.59038 5743 ft 253 kts
2026-04-22 22:50 40.73544 -74.58573 5750 ft 253 kts
2026-04-22 22:50 40.75275 -74.58112 5752 ft 254 kts
2026-04-22 22:50 40.77008 -74.57650 5752 ft 254 kts
2026-04-22 22:51 40.78744 -74.57185 5774 ft 254 kts
2026-04-22 22:51 40.80473 -74.56717 5771 ft 254 kts
2026-04-22 22:51 40.82208 -74.56246 5772 ft 254 kts
2026-04-22 22:51 40.83921 -74.55656 5769 ft 257 kts 19°
2026-04-22 22:52 40.85427 -74.54342 5626 ft 264 kts 41°
2026-04-22 22:52 40.86445 -74.52317 5450 ft 269 kts 65°
2026-04-22 22:52 40.86974 -74.49931 5274 ft 271 kts 72°
2026-04-22 22:52 40.87463 -74.47526 5108 ft 271 kts 72°
2026-04-22 22:53 40.87952 -74.45124 4987 ft 270 kts 72°
2026-04-22 22:53 40.88436 -74.42776 4887 ft 263 kts 72°
2026-04-22 22:53 40.88914 -74.40469 4780 ft 259 kts 72°
2026-04-22 22:53 40.89390 -74.38180 4679 ft 258 kts 72°
2026-04-22 22:54 40.89863 -74.35891 4576 ft 258 kts 72°
2026-04-22 22:54 40.90333 -74.33607 4457 ft 257 kts 72°
2026-04-22 22:54 40.90805 -74.31321 4369 ft 257 kts 72°
2026-04-22 22:54 40.91270 -74.29076 4274 ft 255 kts 72°
2026-04-22 22:55 40.91734 -74.26820 4170 ft 253 kts 72°
2026-04-22 22:55 40.92191 -74.24582 4065 ft 252 kts 72°
2026-04-22 22:55 40.93098 -74.20114 3871 ft 250 kts 73°
2026-04-22 22:56 40.93319 -74.17843 3762 ft 247 kts 92°
2026-04-22 22:56 40.92942 -74.15682 3657 ft 237 kts 114°
2026-04-22 22:56 40.92412 -74.14449 3601 ft 230 kts 127°
2026-04-22 22:56 40.91300 -74.13006 3494 ft 220 kts 147°
2026-04-22 22:57 40.89597 -74.11709 3360 ft 208 kts 152°
2026-04-22 22:57 40.88341 -74.10774 3259 ft 206 kts 152°
2026-04-22 22:57 40.87495 -74.10144 3188 ft 207 kts 153°
2026-04-22 22:57 40.86257 -74.09221 3091 ft 206 kts 152°
2026-04-22 22:58 40.84981 -74.08344 2868 ft 206 kts 162°
2026-04-22 22:58 40.83579 -74.07997 2565 ft 204 kts 183°
2026-04-22 22:58 40.82192 -74.08274 2276 ft 202 kts 199°
2026-04-22 22:58 40.80913 -74.09037 1936 ft 199 kts 205°
2026-04-22 22:59 40.79710 -74.09808 1710 ft 183 kts 205°
2026-04-22 22:59 40.78634 -74.10496 1529 ft 163 kts 204°
2026-04-22 22:59 40.77673 -74.11109 1502 ft 146 kts 205°
2026-04-22 22:59 40.76773 -74.11683 1463 ft 142 kts 205°
2026-04-22 23:00 40.75893 -74.12244 1333 ft 140 kts 205°
2026-04-22 23:00 40.75024 -74.12798 1169 ft 138 kts 205°
2026-04-22 23:00 40.74151 -74.13353 991 ft 140 kts 204°
2026-04-22 23:00 40.73288 -74.13904 802 ft 140 kts 204°
2026-04-22 23:01 40.72412 -74.14464 626 ft 140 kts 204°
2026-04-22 23:01 40.71543 -74.15021 419 ft 138 kts 204°
2026-04-22 23:01 40.70680 -74.15563 237 ft 137 kts 203°
2026-04-22 23:01 40.69826 -74.16112 59 ft 136 kts 202°
2026-04-22 23:02 40.69046 -74.16603 23 ft 104 kts 206°
2026-04-22 23:02 40.68556 -74.16917 22 ft 55 kts 206°
2026-04-22 23:02 40.68321 -74.17091 23 ft 27 kts 225°
2026-04-22 23:02 40.68228 -74.17242 24 ft 17 kts 237°
2026-04-22 23:03 40.68159 -74.17380 21 ft 13 kts 238°
2026-04-22 23:03 40.68159 -74.17493 21 ft 15 kts 294°
2026-04-22 23:03 40.68209 -74.17625 22 ft 16 kts 297°
2026-04-22 23:03 40.68285 -74.17680 22 ft 13 kts 327°
2026-04-22 23:04 40.68374 -74.17695 23 ft 16 kts 25°
2026-04-22 23:04 40.68483 -74.17625 23 ft 19 kts 26°
2026-04-22 23:04 40.68615 -74.17542 22 ft 23 kts 26°
2026-04-22 23:04 40.68766 -74.17445 22 ft 26 kts 25°
2026-04-22 23:05 40.68906 -74.17356 23 ft 23 kts 26°
2026-04-22 23:05 40.69053 -74.17262 22 ft 22 kts 26°
2026-04-22 23:05 40.69194 -74.17173 22 ft 24 kts 26°
2026-04-22 23:05 40.69340 -74.17083 23 ft 23 kts 18°
2026-04-22 23:06 40.69509 -74.17075 22 ft 26 kts 351°
2026-04-22 23:06 40.69607 -74.17109 22 ft 1 kts 339°
2026-04-22 23:06 40.69614 -74.17113 22 ft 4 kts 339°
2026-04-22 23:06 40.69666 -74.17144 22 ft 10 kts 332°
2026-04-22 23:07 40.69737 -74.17204 22 ft 14 kts 323°
2026-04-22 23:07 40.69814 -74.17299 23 ft 16 kts 315°
2026-04-22 23:07 40.69874 -74.17400 22 ft 13 kts 297°
2026-04-22 23:07 40.69901 -74.17528 22 ft 16 kts 278°
2026-04-22 23:08 40.69940 -74.17656 22 ft 15 kts 322°
2026-04-22 23:08 40.69985 -74.17780 22 ft 17 kts 275°
2026-04-22 23:08 40.69997 -74.17952 22 ft 20 kts 275°
2026-04-22 23:08 40.70002 -74.18138 24 ft 14 kts 244°
2026-04-22 23:09 40.69912 -74.18170 22 ft 14 kts 191°
2026-04-22 23:09 40.69815 -74.18132 22 ft 15 kts 153°
2026-04-22 23:09 40.69757 -74.18064 22 ft 10 kts 89°
2026-04-22 23:09 40.69774 -74.18002 24 ft 4 kts 65°
2026-04-22 23:10 40.69777 -74.17993 22 ft 0 kts 66°